Time,TemperatureF,DewpointF,PressureIn,WindDirection,WindDirectionDegrees,WindSpeedMPH,WindSpeedGustMPH,Humidity,HourlyPrecipIn,Conditions,Clouds,dailyrainin,SoftwareType,DateUTC
2013-07-16 00:10:00,77.4,76.0,30.20,WNW,286,0.0,-999.0,96,-99.99,,,0.00,weatherlink.com 1.10,2013-07-16 04:10:00,
2013-07-16 00:25:00,77.2,76.0,30.19,WNW,286,0.0,-999.0,96,-99.99,,,0.00,weatherlink.com 1.10,2013-07-16 04:25:00,
2013-07-16 00:40:00,77.0,76.0,30.20,WNW,286,0.0,-999.0,96,-99.99,,,0.00,weatherlink.com 1.10,2013-07-16 04:40:00,
2013-07-16 00:55:00,76.7,76.0,30.20,WNW,286,0.0,-999.0,97,-99.99,,,0.00,weatherlink.com 1.10,2013-07-16 04:55:00,
2013-07-16 01:10:00,76.5,76.0,30.19,WNW,286,0.0,-999.0,97,-99.99,,,0.00,weatherlink.com 1.10,2013-07-16 05:10:00,
2013-07-16 01:25:00,76.3,75.0,30.19,WNW,286,0.0,-999.0,97,-99.99,,,0.00,weatherlink.com 1.10,2013-07-16 05:25:00,
2013-07-16 01:40:00,76.3,76.0,30.19,WNW,286,0.0,-999.0,98,-99.99,,,0.00,weatherlink.com 1.10,2013-07-16 05:40:00,
2013-07-16 01:55:00,76.3,76.0,30.18,WNW,286,0.0,-999.0,98,-99.99,,,0.00,weatherlink.com 1.10,2013-07-16 05:55:00,
2013-07-16 02:10:00,76.3,75.0,30.18,WNW,286,0.0,-999.0,97,-99.99,,,0.00,weatherlink.com 1.10,2013-07-16 06:10:00,
2013-07-16 02:25:00,76.5,76.0,30.18,WNW,286,0.0,-999.0,97,-99.99,,,0.00,weatherlink.com 1.10,2013-07-16 06:25:00,
2013-07-16 02:40:00,76.3,75.0,30.18,WNW,286,0.0,-999.0,96,-99.99,,,0.00,weatherlink.com 1.10,2013-07-16 06:40:00,
2013-07-16 02:55:00,76.1,75.0,30.18,WNW,286,0.0,-999.0,96,-99.99,,,0.00,weatherlink.com 1.10,2013-07-16 06:55:00,
2013-07-16 03:11:00,76.1,75.0,30.18,WNW,286,0.0,-999.0,96,-99.99,,,0.00,weatherlink.com 1.10,2013-07-16 07:11:00,
2013-07-16 03:25:00,76.0,75.0,30.18,WNW,286,0.0,-999.0,96,-99.99,,,0.00,weatherlink.com 1.10,2013-07-16 07:25:00,
2013-07-16 03:40:00,76.0,75.0,30.18,WNW,286,1.0,-999.0,96,-99.99,,,0.00,weatherlink.com 1.10,2013-07-16 07:40:00,
2013-07-16 03:56:00,76.7,75.0,30.18,WNW,286,0.0,-999.0,95,-99.99,,,0.00,weatherlink.com 1.10,2013-07-16 07:56:00,
2013-07-16 04:10:00,77.4,75.0,30.18,WNW,286,0.0,-999.0,92,-99.99,,,0.00,weatherlink.com 1.10,2013-07-16 08:10:00,
2013-07-16 04:26:00,77.9,75.0,30.18,WNW,286,0.0,-999.0,90,-99.99,,,0.00,weatherlink.com 1.10,2013-07-16 08:26:00,
2013-07-16 04:41:00,78.3,75.0,30.18,WNW,286,0.0,-999.0,88,-99.99,,,0.00,weatherlink.com 1.10,2013-07-16 08:41:00,
2013-07-16 04:56:00,78.3,75.0,30.18,WNW,286,0.0,-999.0,88,-99.99,,,0.00,weatherlink.com 1.10,2013-07-16 08:56:00,
2013-07-16 05:11:00,78.3,75.0,30.18,WNW,286,0.0,-999.0,88,-99.99,,,0.00,weatherlink.com 1.10,2013-07-16 09:11:00,
2013-07-16 05:26:00,78.1,74.0,30.19,WNW,286,0.0,-999.0,88,-99.99,,,0.00,weatherlink.com 1.10,2013-07-16 09:26:00,
2013-07-16 05:41:00,78.3,75.0,30.19,WNW,286,0.0,-999.0,88,-99.99,,,0.00,weatherlink.com 1.10,2013-07-16 09:41:00,
2013-07-16 05:56:00,78.3,75.0,30.19,WNW,286,0.0,-999.0,88,-99.99,,,0.00,weatherlink.com 1.10,2013-07-16 09:56:00,
2013-07-16 06:11:00,78.1,74.0,30.19,WNW,288,0.0,-999.0,88,-99.99,,,0.00,weatherlink.com 1.10,2013-07-16 10:11:00,
2013-07-16 06:26:00,77.6,75.0,30.20,WNW,288,0.0,-999.0,90,-99.99,,,0.00,weatherlink.com 1.10,2013-07-16 10:26:00,
2013-07-16 06:41:00,77.4,75.0,30.20,WNW,288,0.0,-999.0,91,-99.99,,,0.00,weatherlink.com 1.10,2013-07-16 10:41:00,
2013-07-16 06:56:00,78.3,75.0,30.20,WNW,288,0.0,-999.0,90,-99.99,,,0.00,weatherlink.com 1.10,2013-07-16 10:56:00,
2013-07-16 07:11:00,78.5,75.0,30.21,NNW,335,0.0,-999.0,88,-99.99,,,0.00,weatherlink.com 1.10,2013-07-16 11:11:00,
2013-07-16 07:26:00,79.8,75.0,30.20,NNW,335,0.0,-999.0,85,-99.99,,,0.00,weatherlink.com 1.10,2013-07-16 11:26:00,
2013-07-16 07:41:00,80.1,75.0,30.21,NNW,338,0.0,-999.0,83,-99.99,,,0.00,weatherlink.com 1.10,2013-07-16 11:41:00,
2013-07-16 07:56:00,80.9,75.0,30.21,NNW,338,0.0,-999.0,83,-99.99,,,0.00,weatherlink.com 1.10,2013-07-16 11:56:00,
2013-07-16 08:11:00,81.6,76.0,30.21,NNW,337,0.0,-999.0,83,-99.99,,,0.00,weatherlink.com 1.10,2013-07-16 12:11:00,
2013-07-16 08:26:00,82.4,77.0,30.21,North,356,0.0,-999.0,83,-99.99,,,0.00,weatherlink.com 1.10,2013-07-16 12:26:00,
2013-07-16 08:41:00,83.0,76.0,30.21,NE,46,0.0,-999.0,80,-99.99,,,0.00,weatherlink.com 1.10,2013-07-16 12:41:00,
2013-07-16 08:56:00,84.0,77.0,30.21,North,349,0.0,-999.0,78,-99.99,,,0.00,weatherlink.com 1.10,2013-07-16 12:56:00,
2013-07-16 09:11:00,84.5,77.0,30.21,NNW,337,0.0,-999.0,77,-99.99,,,0.00,weatherlink.com 1.10,2013-07-16 13:11:00,
2013-07-16 09:26:00,84.9,75.0,30.21,NE,39,0.0,-999.0,71,-99.99,,,0.00,weatherlink.com 1.10,2013-07-16 13:26:00,
2013-07-16 09:41:00,85.5,73.0,30.21,North,10,0.0,-999.0,67,-99.99,,,0.00,weatherlink.com 1.10,2013-07-16 13:41:00,
2013-07-16 09:56:00,86.3,75.0,30.21,NW,320,3.0,-999.0,68,-99.99,,,0.00,weatherlink.com 1.10,2013-07-16 13:56:00,
2013-07-16 10:11:00,86.3,74.0,30.22,NW,326,4.0,-999.0,66,-99.99,,,0.00,weatherlink.com 1.10,2013-07-16 14:11:00,
2013-07-16 10:26:00,86.5,72.0,30.22,WNW,296,10.0,-999.0,62,-99.99,,,0.00,weatherlink.com 1.10,2013-07-16 14:26:00,
2013-07-16 10:41:00,87.0,71.0,30.22,ENE,74,6.0,-999.0,59,-99.99,,,0.00,weatherlink.com 1.10,2013-07-16 14:41:00,
2013-07-16 10:56:00,87.6,71.0,30.22,NNE,33,7.0,-999.0,58,-99.99,,,0.00,weatherlink.com 1.10,2013-07-16 14:56:00,
2013-07-16 11:11:00,88.0,70.0,30.22,ENE,58,3.0,-999.0,56,-99.99,,,0.00,weatherlink.com 1.10,2013-07-16 15:11:00,
2013-07-16 11:26:00,88.4,72.0,30.22,NNW,342,5.0,-999.0,58,-99.99,,,0.00,weatherlink.com 1.10,2013-07-16 15:26:00,
2013-07-16 11:41:00,89.0,73.0,30.21,NNE,15,0.0,-999.0,60,-99.99,,,0.00,weatherlink.com 1.10,2013-07-16 15:41:00,
2013-07-16 11:56:00,89.0,73.0,30.21,NE,42,7.0,-999.0,59,-99.99,,,0.00,weatherlink.com 1.10,2013-07-16 15:56:00,
2013-07-16 12:11:00,89.3,73.0,30.21,NNW,344,0.0,-999.0,59,-99.99,,,0.00,weatherlink.com 1.10,2013-07-16 16:11:00,
2013-07-16 12:26:00,89.9,72.0,30.21,SE,131,0.0,-999.0,56,-99.99,,,0.00,weatherlink.com 1.10,2013-07-16 16:26:00,
2013-07-16 12:41:00,89.3,71.0,30.21,NE,34,1.0,-999.0,55,-99.99,,,0.00,weatherlink.com 1.10,2013-07-16 16:41:00,
2013-07-16 12:56:00,90.1,72.0,30.21,North,359,0.0,-999.0,55,-99.99,,,0.00,weatherlink.com 1.10,2013-07-16 16:56:00,
2013-07-16 13:11:00,90.1,72.0,30.21,NNW,338,3.0,-999.0,55,-99.99,,,0.00,weatherlink.com 1.10,2013-07-16 17:11:00,
2013-07-16 13:26:00,90.5,72.0,30.20,NNW,341,5.0,-999.0,54,-99.99,,,0.00,weatherlink.com 1.10,2013-07-16 17:26:00,
2013-07-16 13:41:00,91.0,74.0,30.20,NW,326,2.0,-999.0,58,-99.99,,,0.00,weatherlink.com 1.10,2013-07-16 17:41:00,
2013-07-16 13:56:00,91.0,71.0,30.19,North,359,3.0,-999.0,52,-99.99,,,0.00,weatherlink.com 1.10,2013-07-16 17:56:00,
2013-07-16 14:11:00,91.0,72.0,30.19,NNE,18,0.0,-999.0,53,-99.99,,,0.00,weatherlink.com 1.10,2013-07-16 18:11:00,
2013-07-16 14:26:00,91.2,75.0,30.19,ENE,68,2.0,-999.0,59,-99.99,,,0.00,weatherlink.com 1.10,2013-07-16 18:26:00,
2013-07-16 14:41:00,91.0,73.0,30.18,North,356,2.0,-999.0,56,-99.99,,,0.00,weatherlink.com 1.10,2013-07-16 18:41:00,
2013-07-16 14:56:00,91.2,73.0,30.18,NW,322,0.0,-999.0,55,-99.99,,,0.00,weatherlink.com 1.10,2013-07-16 18:56:00,
2013-07-16 15:11:00,91.6,75.0,30.18,NNW,337,0.0,-999.0,58,-99.99,,,0.00,weatherlink.com 1.10,2013-07-16 19:11:00,
2013-07-16 15:26:00,91.6,73.0,30.18,North,6,0.0,-999.0,54,-99.99,,,0.00,weatherlink.com 1.10,2013-07-16 19:26:00,
2013-07-16 15:41:00,91.6,72.0,30.18,North,1,0.0,-999.0,53,-99.99,,,0.00,weatherlink.com 1.10,2013-07-16 19:41:00,
2013-07-16 15:56:00,91.2,73.0,30.17,ENE,62,0.0,-999.0,56,-99.99,,,0.00,weatherlink.com 1.10,2013-07-16 19:56:00,
2013-07-16 16:11:00,91.8,73.0,30.16,NE,47,0.0,-999.0,54,-99.99,,,0.00,weatherlink.com 1.10,2013-07-16 20:11:00,
2013-07-16 16:26:00,91.4,75.0,30.16,SE,126,0.0,-999.0,58,-99.99,,,0.00,weatherlink.com 1.10,2013-07-16 20:26:00,
2013-07-16 16:41:00,91.2,75.0,30.16,SE,128,0.0,-999.0,60,-99.99,,,0.00,weatherlink.com 1.10,2013-07-16 20:41:00,
2013-07-16 16:56:00,90.5,75.0,30.16,SE,143,2.0,-999.0,61,-99.99,,,0.00,weatherlink.com 1.10,2013-07-16 20:56:00,
2013-07-16 17:11:00,90.5,75.0,30.16,SE,143,0.0,-999.0,61,-99.99,,,0.00,weatherlink.com 1.10,2013-07-16 21:11:00,
2013-07-16 17:26:00,90.3,74.0,30.15,SE,144,1.0,-999.0,58,-99.99,,,0.00,weatherlink.com 1.10,2013-07-16 21:26:00,
2013-07-16 17:41:00,90.3,74.0,30.15,SE,144,0.0,-999.0,59,-99.99,,,0.00,weatherlink.com 1.10,2013-07-16 21:41:00,
2013-07-16 17:56:00,89.9,75.0,30.15,SE,144,0.0,-999.0,61,-99.99,,,0.00,weatherlink.com 1.10,2013-07-16 21:56:00,
2013-07-16 18:11:00,89.9,75.0,30.15,SE,144,0.0,-999.0,62,-99.99,,,0.00,weatherlink.com 1.10,2013-07-16 22:11:00,
2013-07-16 18:26:00,88.6,75.0,30.15,SE,144,0.0,-999.0,64,-99.99,,,0.00,weatherlink.com 1.10,2013-07-16 22:26:00,
2013-07-16 18:41:00,87.6,78.0,30.16,SE,144,0.0,-999.0,72,-99.99,,,0.00,weatherlink.com 1.10,2013-07-16 22:41:00,
2013-07-16 18:56:00,85.9,78.0,30.16,SE,144,0.0,-999.0,76,-99.99,,,0.00,weatherlink.com 1.10,2013-07-16 22:56:00,
2013-07-16 19:11:00,84.9,78.0,30.16,SE,144,0.0,-999.0,79,-99.99,,,0.00,weatherlink.com 1.10,2013-07-16 23:11:00,
2013-07-16 19:26:00,84.5,78.0,30.16,SE,140,0.0,-999.0,81,-99.99,,,0.00,weatherlink.com 1.10,2013-07-16 23:26:00,
2013-07-16 19:41:00,83.0,78.0,30.16,SE,140,0.0,-999.0,84,-99.99,,,0.00,weatherlink.com 1.10,2013-07-16 23:41:00,
2013-07-16 19:56:00,82.4,78.0,30.16,SE,141,0.0,-999.0,85,-99.99,,,0.00,weatherlink.com 1.10,2013-07-16 23:56:00,
2013-07-16 20:11:00,81.6,77.0,30.16,SE,140,0.0,-999.0,87,-99.99,,,0.00,weatherlink.com 1.10,2013-07-17 00:11:00,
2013-07-16 20:26:00,80.9,78.0,30.17,SSE,155,0.0,-999.0,89,-99.99,,,0.00,weatherlink.com 1.10,2013-07-17 00:26:00,
2013-07-16 20:41:00,80.7,78.0,30.17,South,188,0.0,-999.0,90,-99.99,,,0.00,weatherlink.com 1.10,2013-07-17 00:41:00,
2013-07-16 20:56:00,79.6,77.0,30.17,South,188,0.0,-999.0,91,-99.99,,,0.00,weatherlink.com 1.10,2013-07-17 00:56:00,
2013-07-16 21:11:00,78.8,76.0,30.18,South,188,0.0,-999.0,92,-99.99,,,0.00,weatherlink.com 1.10,2013-07-17 01:11:00,
2013-07-16 21:26:00,78.6,77.0,30.18,South,188,0.0,-999.0,93,-99.99,,,0.00,weatherlink.com 1.10,2013-07-17 01:26:00,
2013-07-16 21:41:00,78.5,76.0,30.18,South,188,0.0,-999.0,93,-99.99,,,0.00,weatherlink.com 1.10,2013-07-17 01:41:00,
2013-07-16 21:56:00,78.1,76.0,30.18,South,188,0.0,-999.0,94,-99.99,,,0.00,weatherlink.com 1.10,2013-07-17 01:56:00,
2013-07-16 22:11:00,77.7,76.0,30.18,South,188,0.0,-999.0,94,-99.99,,,0.00,weatherlink.com 1.10,2013-07-17 02:11:00,
2013-07-16 22:26:00,77.7,76.0,30.18,South,188,0.0,-999.0,95,-99.99,,,0.00,weatherlink.com 1.10,2013-07-17 02:26:00,
2013-07-16 22:41:00,77.2,76.0,30.18,South,188,0.0,-999.0,95,-99.99,,,0.00,weatherlink.com 1.10,2013-07-17 02:41:00,
2013-07-16 22:56:00,77.2,76.0,30.19,South,188,0.0,-999.0,96,-99.99,,,0.00,weatherlink.com 1.10,2013-07-17 02:56:00,
2013-07-16 23:11:00,76.7,76.0,30.18,South,188,0.0,-999.0,97,-99.99,,,0.00,weatherlink.com 1.10,2013-07-17 03:11:00,
2013-07-16 23:26:00,76.3,75.0,30.19,South,188,0.0,-999.0,97,-99.99,,,0.00,weatherlink.com 1.10,2013-07-17 03:26:00,
2013-07-16 23:41:00,76.1,76.0,30.19,South,188,0.0,-999.0,98,-99.99,,,0.00,weatherlink.com 1.10,2013-07-17 03:41:00,
2013-07-16 23:56:00,76.0,75.0,30.19,South,188,0.0,-999.0,98,-99.99,,,0.00,weatherlink.com 1.10,2013-07-17 03:56:00,